Simultaneous Nadir Overpasses (SNOs) Predictions

Prediction of SNOs between AQUA and NPP Satellite Orbit:

Table of predicted SNOs for the next 14.0 days since TLE Epoch: 8/6/2016
Index Date (AQUA) Time (AQUA) Lat,Lon (AQUA) SZA (AQUA ) Date (NPP) Time (NPP) Lat,Lon (NPP) SZA (NPP ) Distance(km) Time Diff (sec)
1 08/06/2016 20:59:47 73.26, 97.33 84.58 08/06/2016 20:58:36 73.26, 97.29 84.65 1.38 71
2 08/06/2016 21:48:38 -75.17, -90.57 97.55 08/06/2016 21:48:43 -75.18, -90.51 97.57 1.85 5
3 08/09/2016 13:15:58 74.18,-144.78 84.29 08/09/2016 13:15:11 74.19,-144.73 84.31 1.85 47
4 08/09/2016 14:05:03 -75.36, 25.81 97.03 08/09/2016 14:05:33 -75.36, 25.80 97.05 0.39 30
5 08/12/2016 05:32:21 74.47, -28.23 84.72 08/12/2016 05:31:59 74.47, -28.23 84.74 0.13 22
6 08/12/2016 06:21:26 -75.63, 142.48 96.59 08/12/2016 06:22:21 -75.62, 142.41 96.62 2.09 55
7 08/14/2016 21:00:01 -72.52, -84.14 92.38 08/14/2016 20:58:47 -72.54, -84.23 92.30 3.93 74
8 08/14/2016 21:48:42 74.80, 88.46 85.13 08/14/2016 21:48:45 74.79, 88.41 85.14 1.40 3
9 08/14/2016 22:33:52 -81.42, -26.52 109.53 08/14/2016 22:35:05 -80.80, -27.71 109.81 72.40 73
10 08/17/2016 13:15:58 -74.15, 35.13 93.36 08/17/2016 13:15:08 -74.16, 35.21 93.34 2.45 50




NCC Satellite Simultaneous Nadir Overpasses (SNOs) Prediction Service
